^^
Your Local Weather - Clay, NY Station Historical Data
Daily Summary for February 1, 2018 Units:  Metric    English   Both
« Previous Day
Next Day »
Daily Weekly Monthly Yearly Custom
  High: Low: Average:
Temperature: 8.1 °C -4.9 °C 2.4 °C
Dew Point: 0.9 °C -8.7 °C -4.1 °C
Humidity: 82% 52% 63%
Wind Speed: 12.9km/h 0km/h 6.8km/h
Wind Gust: 24.1km/h - -
Wind- - SW
Pressure: 1013.8 hPa 1005 hPa -
Precipitation: 2.03 mm    
Historical Graphs
 
 
Tabular Data for February 1, 2018
Time Temperature Dew Point Pressure Wind Wind Speed Wind Gust Humidity Rainfall Rate (Hourly) solar
00:02 0.5 °C -8.2 °C 1008.7 hPa South 6.4 km/h 6.4 km/h 52% 0 mm 0 W/m2
00:08 0.4 °C -8.1 °C 1008.4 hPa South 4.8 km/h 6.4 km/h 53% 0 mm 0 W/m2
00:14 0.3 °C -7.9 °C 1008.4 hPa South 3.2 km/h 4.8 km/h 54% 0 mm 0 W/m2
00:20 0.1 °C -8.1 °C 1008.4 hPa South 3.2 km/h 3.2 km/h 54% 0 mm 0 W/m2
00:26 0.1 °C -7.9 °C 1008.7 hPa South 3.2 km/h 4.8 km/h 55% 0 mm 0 W/m2
00:32 -0.1 °C -7.8 °C 1008.7 hPa South 3.2 km/h 3.2 km/h 56% 0 mm 0 W/m2
00:38 -0.1 °C -7.6 °C 1008.7 hPa South 1.6 km/h 3.2 km/h 57% 0 mm 0 W/m2
00:44 -0.1 °C -7.6 °C 1008.7 hPa SE 1.6 km/h 1.6 km/h 57% 0 mm 0 W/m2
00:50 0.1 °C -7.7 °C 1008.7 hPa SSE 3.2 km/h 3.2 km/h 56% 0 mm 0 W/m2
00:56 0.2 °C -7.6 °C 1008.7 hPa South 3.2 km/h 3.2 km/h 56% 0 mm 0 W/m2
01:02 0.5 °C -7.7 °C 1008.7 hPa South 4.8 km/h 6.4 km/h 54% 0 mm 0 W/m2
01:08 0.6 °C -7.4 °C 1008.7 hPa SSE 4.8 km/h 6.4 km/h 55% 0 mm 0 W/m2
01:14 0.6 °C -7.7 °C 1008.7 hPa SSW 3.2 km/h 6.4 km/h 54% 0 mm 0 W/m2
01:20 0.6 °C -7.4 °C 1008.7 hPa South 4.8 km/h 4.8 km/h 55% 0 mm 0 W/m2
01:26 0.6 °C -7.7 °C 1008.4 hPa SSE 3.2 km/h 4.8 km/h 54% 0 mm 0 W/m2
01:32 0.5 °C -7.7 °C 1008.4 hPa SW 4.8 km/h 6.4 km/h 54% 0 mm 0 W/m2
01:38 0.7 °C -7.8 °C 1008.4 hPa SSW 4.8 km/h 6.4 km/h 53% 0 mm 0 W/m2
01:44 0.7 °C -7.8 °C 1008.4 hPa SSW 4.8 km/h 8 km/h 53% 0 mm 0 W/m2
01:50 0.7 °C -7.6 °C 1008.4 hPa South 4.8 km/h 4.8 km/h 54% 0 mm 0 W/m2
01:56 0.6 °C -7.7 °C 1008.4 hPa SSE 3.2 km/h 6.4 km/h 54% 0 mm 0 W/m2
02:02 0.3 °C -7.7 °C 1008.4 hPa SE 3.2 km/h 8 km/h 55% 0 mm 0 W/m2
02:08 0.2 °C -7.8 °C 1008.4 hPa SSE 3.2 km/h 8 km/h 55% 0 mm 0 W/m2
02:14 0.2 °C -7.8 °C 1008.4 hPa SSE 4.8 km/h 6.4 km/h 55% 0 mm 0 W/m2
02:20 0.2 °C -7.8 °C 1008.4 hPa SSE 4.8 km/h 6.4 km/h 55% 0 mm 0 W/m2
02:28 0.2 °C -7.8 °C 1008.7 hPa SSE 6.4 km/h 9.7 km/h 55% 0 mm 0 W/m2
02:34 0.3 °C -7.9 °C 1008.4 hPa SSE 6.4 km/h 8 km/h 54% 0 mm 0 W/m2
02:40 0.3 °C -7.9 °C 1008.7 hPa South 6.4 km/h 6.4 km/h 54% 0 mm 0 W/m2
02:46 0.3 °C -7.7 °C 1008.4 hPa South 4.8 km/h 8 km/h 55% 0 mm 0 W/m2
02:52 0.4 °C -7.6 °C 1008.4 hPa SSE 4.8 km/h 6.4 km/h 55% 0 mm 0 W/m2
02:58 0.3 °C -7.7 °C 1008.4 hPa South 4.8 km/h 6.4 km/h 55% 0 mm 0 W/m2
03:04 0.3 °C -7.7 °C 1008.4 hPa South 4.8 km/h 8 km/h 55% 0 mm 0 W/m2
03:10 0.2 °C -7.6 °C 1008.4 hPa South 4.8 km/h 4.8 km/h 56% 0 mm 0 W/m2
03:16 0.2 °C -7.6 °C 1008.4 hPa SSE 4.8 km/h 6.4 km/h 56% 0 mm 0 W/m2
03:22 0.2 °C -7.6 °C 1008.4 hPa SSE 4.8 km/h 4.8 km/h 56% 0 mm 0 W/m2
03:28 0.2 °C -7.6 °C 1008.4 hPa SSW 4.8 km/h 8 km/h 56% 0 mm 0 W/m2
03:34 0.2 °C -7.6 °C 1008.4 hPa SE 4.8 km/h 6.4 km/h 56% 0 mm 0 W/m2
03:40 0.2 °C -7.8 °C 1008.4 hPa SSE 6.4 km/h 8 km/h 55% 0 mm 0 W/m2
03:46 0.2 °C -7.8 °C 1008.4 hPa South 6.4 km/h 8 km/h 55% 0 mm 0 W/m2
03:52 0.2 °C -7.6 °C 1008.4 hPa East 6.4 km/h 6.4 km/h 56% 0 mm 0 W/m2
03:58 0.2 °C -7.8 °C 1008.4 hPa SSE 6.4 km/h 9.7 km/h 55% 0 mm 0 W/m2
04:04 0.2 °C -7.8 °C 1008.4 hPa South 8 km/h 12.9 km/h 55% 0 mm 0 W/m2
04:10 0.2 °C -7.8 °C 1008 hPa SSE 8 km/h 8 km/h 55% 0 mm 0 W/m2
04:16 0.3 °C -7.7 °C 1008 hPa SSE 6.4 km/h 8 km/h 55% 0 mm 0 W/m2
04:22 0.3 °C -7.7 °C 1008 hPa SSW 8 km/h 8 km/h 55% 0 mm 0 W/m2
04:28 0.4 °C -7.6 °C 1008 hPa South 8 km/h 11.3 km/h 55% 0 mm 0 W/m2
04:34 0.3 °C -7.4 °C 1008 hPa South 6.4 km/h 11.3 km/h 56% 0 mm 0 W/m2
04:40 0.4 °C -7.6 °C 1008.4 hPa South 8 km/h 8 km/h 55% 0 mm 0 W/m2
04:46 0.4 °C -7.3 °C 1008.4 hPa SSW 8 km/h 9.7 km/h 56% 0 mm 0 W/m2
04:52 0.4 °C -7.6 °C 1008.4 hPa South 8 km/h 11.3 km/h 55% 0 mm 0 W/m2
04:58 0.4 °C -7.6 °C 1008.4 hPa SSE 8 km/h 11.3 km/h 55% 0 mm 0 W/m2
05:04 0.4 °C -7.3 °C 1008.4 hPa South 8 km/h 8 km/h 56% 0 mm 0 W/m2
05:10 0.4 °C -7.3 °C 1008.4 hPa SE 6.4 km/h 9.7 km/h 56% 0 mm 0 W/m2
05:16 0.4 °C -7.3 °C 1008 hPa South 6.4 km/h 9.7 km/h 56% 0 mm 0 W/m2
05:24 0.6 °C -7.2 °C 1008 hPa SSW 4.8 km/h 6.4 km/h 56% 0 mm 0 W/m2
05:30 0.6 °C -7.2 °C 1008 hPa SSE 4.8 km/h 8 km/h 56% 0 mm 0 W/m2
05:36 0.6 °C -7.2 °C 1008 hPa South 4.8 km/h 8 km/h 56% 0 mm 0 W/m2
05:42 0.7 °C -7.1 °C 1008 hPa South 3.2 km/h 6.4 km/h 56% 0 mm 0 W/m2
05:48 0.8 °C -7 °C 1008 hPa SSE 4.8 km/h 6.4 km/h 56% 0 mm 0 W/m2
05:54 0.8 °C -7 °C 1008 hPa SSW 4.8 km/h 8 km/h 56% 0 mm 0 W/m2
06:00 0.8 °C -6.9 °C 1008 hPa South 4.8 km/h 4.8 km/h 56% 0 mm 0 W/m2
06:06 0.9 °C -6.7 °C 1008.4 hPa SSW 4.8 km/h 8 km/h 57% 0 mm 0 W/m2
06:12 0.9 °C -6.6 °C 1008.4 hPa SSW 4.8 km/h 6.4 km/h 57% 0 mm 0 W/m2
06:18 1.1 °C -6.5 °C 1008 hPa SSE 4.8 km/h 9.7 km/h 57% 0 mm 0 W/m2
06:24 1.1 °C -6.2 °C 1008.4 hPa SSW 4.8 km/h 6.4 km/h 58% 0 mm 0 W/m2
06:30 1.2 °C -6.2 °C 1008 hPa SW 6.4 km/h 6.4 km/h 58% 0 mm 0 W/m2
06:36 1.3 °C -6.1 °C 1008 hPa SSW 6.4 km/h 6.4 km/h 58% 0 mm 0 W/m2
06:42 1.3 °C -6.3 °C 1007.7 hPa SSE 6.4 km/h 14.5 km/h 57% 0 mm 0 W/m2
06:48 1.3 °C -6.1 °C 1008 hPa SSW 6.4 km/h 14.5 km/h 58% 0 mm 0 W/m2
06:54 1.3 °C -6.1 °C 1008 hPa SSW 6.4 km/h 8 km/h 58% 0 mm 0 W/m2
07:00 1.4 °C -6 °C 1008.4 hPa South 6.4 km/h 8 km/h 58% 0 mm 0 W/m2
07:06 1.4 °C -6 °C 1008.4 hPa SSW 6.4 km/h 8 km/h 58% 0 mm 0 W/m2
07:12 1.4 °C -5.9 °C 1008.4 hPa South 6.4 km/h 9.7 km/h 58% 0 mm 0 W/m2
07:18 1.4 °C -5.8 °C 1008 hPa SSE 4.8 km/h 14.5 km/h 59% 0 mm 0 W/m2
07:24 1.3 °C -5.8 °C 1008 hPa South 4.8 km/h 8 km/h 59% 0 mm 0 W/m2
07:30 1.3 °C -5.7 °C 1007.7 hPa South 4.8 km/h 6.4 km/h 60% 0 mm 0 W/m2
07:36 1.3 °C -5.7 °C 1007.7 hPa South 4.8 km/h 9.7 km/h 60% 0 mm 0 W/m2
07:42 1.2 °C -5.5 °C 1008 hPa SSW 4.8 km/h 4.8 km/h 61% 0 mm 7 W/m2
07:48 1.2 °C -5.5 °C 1007.7 hPa South 3.2 km/h 11.3 km/h 61% 0 mm 14 W/m2
07:54 1.3 °C -5.4 °C 1007.7 hPa SSE 4.8 km/h 4.8 km/h 61% 0 mm 21 W/m2
08:00 1.3 °C -5.4 °C 1007.7 hPa SSW 4.8 km/h 4.8 km/h 61% 0 mm 23 W/m2
08:06 1.3 °C -5.4 °C 1008 hPa SSE 4.8 km/h 4.8 km/h 61% 0 mm 26 W/m2
08:12 1.3 °C -5.2 °C 1007.7 hPa SSE 3.2 km/h 3.2 km/h 62% 0 mm 25 W/m2
08:18 1.3 °C -5.2 °C 1007.7 hPa South 3.2 km/h 4.8 km/h 62% 0 mm 37 W/m2
08:24 1.4 °C -5.1 °C 1007.7 hPa South 3.2 km/h 4.8 km/h 62% 0 mm 42 W/m2
08:30 1.6 °C -5.1 °C 1007.7 hPa South 4.8 km/h 6.4 km/h 61% 0 mm 56 W/m2
08:36 1.8 °C -4.7 °C 1007.7 hPa South 4.8 km/h 8 km/h 62% 0 mm 69 W/m2
08:42 1.9 °C -4.8 °C 1007.7 hPa South 6.4 km/h 6.4 km/h 61% 0 mm 84 W/m2
08:48 1.9 °C -4.6 °C 1007.7 hPa SSE 4.8 km/h 6.4 km/h 62% 0 mm 102 W/m2
08:54 2 °C -4.5 °C 1007.7 hPa SSE 4.8 km/h 8 km/h 62% 0 mm 88 W/m2
09:00 2.1 °C -4.4 °C 1007.7 hPa South 4.8 km/h 6.4 km/h 62% 0 mm 86 W/m2
09:06 2.2 °C -4.4 °C 1007.7 hPa South 4.8 km/h 6.4 km/h 62% 0 mm 97 W/m2
09:12 2.3 °C -4.3 °C 1007.7 hPa South 3.2 km/h 3.2 km/h 62% 0 mm 105 W/m2
09:18 2.4 °C -4.1 °C 1007.7 hPa South 4.8 km/h 4.8 km/h 62% 0 mm 127 W/m2
09:24 2.6 °C -4 °C 1007.7 hPa South 4.8 km/h 9.7 km/h 62% 0 mm 111 W/m2
09:30 2.7 °C -3.7 °C 1008 hPa South 4.8 km/h 4.8 km/h 63% 0 mm 109 W/m2
09:36 2.8 °C -3.7 °C 1008.4 hPa SW 6.4 km/h 9.7 km/h 62% 0 mm 134 W/m2
09:42 2.9 °C -3.4 °C 1008 hPa SSW 6.4 km/h 9.7 km/h 63% 0 mm 179 W/m2
09:48 3.1 °C -3.3 °C 1008 hPa SSE 6.4 km/h 9.7 km/h 63% 0 mm 172 W/m2
09:54 3.3 °C -3.1 °C 1007.7 hPa SSW 6.4 km/h 8 km/h 63% 0 mm 162 W/m2
10:00 3.3 °C -3.1 °C 1007.7 hPa SSW 6.4 km/h 8 km/h 63% 0 mm 146 W/m2
10:06 3.4 °C -2.9 °C 1007.7 hPa SE 4.8 km/h 8 km/h 63% 0 mm 149 W/m2
10:12 3.6 °C -2.6 °C 1007.7 hPa South 4.8 km/h 11.3 km/h 64% 1.27 mm 172 W/m2
10:18 3.7 °C -2.5 °C 1007.7 hPa SE 6.4 km/h 11.3 km/h 64% 1.27 mm 174 W/m2
10:24 3.8 °C -2.2 °C 1007.7 hPa SSW 6.4 km/h 9.7 km/h 65% 0 mm 192 W/m2
10:30 3.9 °C -2.1 °C 1007.7 hPa SSW 6.4 km/h 14.5 km/h 65% 0 mm 172 W/m2
10:36 4.1 °C -1.9 °C 1007.7 hPa South 8 km/h 14.5 km/h 65% 0 mm 193 W/m2
10:42 4.1 °C -1.9 °C 1007.7 hPa South 8 km/h 8 km/h 65% 1.02 mm 153 W/m2
10:48 4.3 °C -1.5 °C 1007.7 hPa South 6.4 km/h 8 km/h 66% 1.02 mm 346 W/m2
10:54 4.9 °C -1.3 °C 1007.3 hPa South 4.8 km/h 9.7 km/h 64% 1.02 mm 346 W/m2
11:00 4.9 °C -1.3 °C 1007.3 hPa SSE 8 km/h 9.7 km/h 64% 0 mm 199 W/m2
11:06 5 °C -1.1 °C 1007.3 hPa SW 8 km/h 16.1 km/h 65% 0 mm 608 W/m2
11:12 5.4 °C -0.9 °C 1007.3 hPa South 8 km/h 9.7 km/h 64% 1.52 mm 513 W/m2
11:18 5.6 °C -0.9 °C 1007.3 hPa SE 8 km/h 9.7 km/h 63% 1.52 mm 517 W/m2
11:24 5.7 °C -0.8 °C 1007 hPa WSW 8 km/h 11.3 km/h 63% 1.02 mm 512 W/m2
11:30 5.8 °C -0.7 °C 1006.7 hPa South 8 km/h 9.7 km/h 63% 0 mm 517 W/m2
11:36 6.1 °C -0.7 °C 1006.7 hPa SSE 6.4 km/h 11.3 km/h 62% 0 mm 512 W/m2
11:42 6.3 °C -0.7 °C 1006.7 hPa SSW 6.4 km/h 8 km/h 61% 0 mm 519 W/m2
11:48 6.2 °C -0.3 °C 1006.7 hPa SSW 6.4 km/h 8 km/h 63% 0 mm 524 W/m2
11:54 6.4 °C -0.3 °C 1006.7 hPa South 6.4 km/h 11.3 km/h 62% 0 mm 531 W/m2
12:00 6.3 °C -0.4 °C 1006.7 hPa SE 9.7 km/h 11.3 km/h 62% 0 mm 547 W/m2
12:06 6.6 °C -0.2 °C 1006.7 hPa SW 9.7 km/h 12.9 km/h 62% 0 mm 529 W/m2
12:12 6.7 °C -0.1 °C 1006.7 hPa SW 9.7 km/h 11.3 km/h 62% 0 mm 615 W/m2
12:18 7.1 °C 0.1 °C 1006.7 hPa SW 8 km/h 11.3 km/h 61% 0 mm 406 W/m2
12:24 6.9 °C -0.1 °C 1006.7 hPa SSW 6.4 km/h 11.3 km/h 61% 0 mm 234 W/m2
12:30 6.7 °C -0.1 °C 1006 hPa SW 8 km/h 8 km/h 62% 0 mm 260 W/m2
12:36 6.7 °C -0.1 °C 1006 hPa SW 8 km/h 9.7 km/h 62% 0 mm 325 W/m2
12:42 6.7 °C -0.1 °C 1005.6 hPa SSW 8 km/h 9.7 km/h 62% 0 mm 306 W/m2
12:48 6.8 °C 0.1 °C 1006 hPa SW 9.7 km/h 16.1 km/h 62% 0 mm 285 W/m2
12:54 6.9 °C -0.1 °C 1005.6 hPa SSW 9.7 km/h 14.5 km/h 61% 0 mm 434 W/m2
13:00 7.3 °C 0 °C 1005.6 hPa South 9.7 km/h 9.7 km/h 60% 0 mm 638 W/m2
13:06 7.6 °C 0.1 °C 1005.6 hPa SW 8 km/h 9.7 km/h 59% 0 mm 485 W/m2
13:12 7.3 °C 0.1 °C 1005.6 hPa SW 9.7 km/h 16.1 km/h 60% 0 mm 394 W/m2
13:18 7.4 °C 0.1 °C 1005.3 hPa SW 9.7 km/h 16.1 km/h 60% 0 mm 429 W/m2
13:24 7.5 °C 0 °C 1005 hPa SW 9.7 km/h 12.9 km/h 59% 0 mm 316 W/m2
13:30 7.3 °C -0.2 °C 1005 hPa SSW 11.3 km/h 11.3 km/h 59% 0 mm 209 W/m2
13:36 7.4 °C 0.2 °C 1005 hPa SW 9.7 km/h 11.3 km/h 60% 0 mm 577 W/m2
13:42 7.7 °C -0.1 °C 1005 hPa SSW 9.7 km/h 17.7 km/h 58% 0 mm 248 W/m2
13:48 7.7 °C -0.1 °C 1005 hPa South 11.3 km/h 19.3 km/h 58% 0 mm 362 W/m2
13:54 7.6 °C -0.1 °C 1005 hPa SW 12.9 km/h 12.9 km/h 58% 0 mm 223 W/m2
14:00 7.6 °C 0.1 °C 1005 hPa SW 9.7 km/h 17.7 km/h 59% 0 mm 353 W/m2
14:06 7.7 °C -0.1 °C 1005 hPa SSE 8 km/h 17.7 km/h 58% 0 mm 309 W/m2
14:12 8.1 °C 0.3 °C 1005 hPa SW 6.4 km/h 8 km/h 58% 0 mm 452 W/m2
14:18 8.1 °C -0.2 °C 1005 hPa SSW 9.7 km/h 9.7 km/h 56% 0 mm 490 W/m2
14:24 8.1 °C -0.2 °C 1005 hPa SSW 11.3 km/h 14.5 km/h 56% 0 mm 315 W/m2
14:30 8.1 °C -0.2 °C 1005 hPa SW 11.3 km/h 17.7 km/h 56% 0 mm 381 W/m2
14:36 7.9 °C 0.2 °C 1005 hPa West 9.7 km/h 17.7 km/h 58% 0 mm 381 W/m2
14:42 8 °C 0 °C 1005 hPa SSW 9.7 km/h 11.3 km/h 57% 0 mm 206 W/m2
14:48 7.9 °C 0.2 °C 1005 hPa SSW 6.4 km/h 12.9 km/h 58% 0 mm 204 W/m2
14:54 7.9 °C 0.4 °C 1005.3 hPa SW 4.8 km/h 9.7 km/h 59% 0 mm 190 W/m2
15:00 7.9 °C 0.2 °C 1005.3 hPa SSW 4.8 km/h 11.3 km/h 58% 0 mm 199 W/m2
15:06 7.9 °C 0.1 °C 1005 hPa SW 8 km/h 12.9 km/h 58% 0 mm 176 W/m2
15:12 7.8 °C 0 °C 1005.3 hPa SSE 11.3 km/h 11.3 km/h 58% 0 mm 156 W/m2
15:18 7.8 °C 0 °C 1005.3 hPa South 9.7 km/h 11.3 km/h 58% 0 mm 229 W/m2
15:24 7.8 °C 0 °C 1005.3 hPa SSW 8 km/h 9.7 km/h 58% 0 mm 204 W/m2
15:30 7.8 °C 0.1 °C 1005.3 hPa SSW 8 km/h 11.3 km/h 58% 0 mm 128 W/m2
15:36 7.7 °C -0.1 °C 1005.3 hPa SSW 6.4 km/h 11.3 km/h 58% 0 mm 109 W/m2
15:42 7.7 °C -0.1 °C 1005.3 hPa SW 6.4 km/h 8 km/h 58% 0 mm 137 W/m2
15:48 7.7 °C -0.1 °C 1005.6 hPa SSW 6.4 km/h 8 km/h 58% 0 mm 100 W/m2
15:54 7.7 °C -0.1 °C 1005.6 hPa SSE 6.4 km/h 11.3 km/h 58% 0 mm 67 W/m2
16:00 7.6 °C 0.1 °C 1005.6 hPa South 8 km/h 8 km/h 59% 0 mm 65 W/m2
16:06 7.5 °C 0 °C 1005.3 hPa South 8 km/h 11.3 km/h 59% 0 mm 70 W/m2
16:12 7.4 °C -0.1 °C 1005.3 hPa SW 8 km/h 11.3 km/h 59% 0 mm 65 W/m2
16:18 7.4 °C -0.1 °C 1005.3 hPa SSW 6.4 km/h 11.3 km/h 59% 0 mm 39 W/m2
16:24 7.3 °C 0 °C 1005.6 hPa South 6.4 km/h 6.4 km/h 60% 0 mm 32 W/m2
16:30 7.2 °C -0.1 °C 1005.6 hPa SSE 8 km/h 9.7 km/h 60% 0 mm 18 W/m2
16:36 7.2 °C -0.1 °C 1005.6 hPa SSW 9.7 km/h 11.3 km/h 60% 0 mm 19 W/m2
16:42 7.1 °C 0.1 °C 1005.6 hPa SW 8 km/h 9.7 km/h 61% 0 mm 12 W/m2
16:48 7 °C 0 °C 1005.6 hPa SSW 8 km/h 11.3 km/h 61% 0 mm 11 W/m2
16:54 6.9 °C 0.2 °C 1005.6 hPa SW 9.7 km/h 12.9 km/h 62% 0 mm 7 W/m2
17:00 6.9 °C 0.1 °C 1005.6 hPa South 8 km/h 8 km/h 62% 0 mm 5 W/m2
17:06 6.7 °C 0.2 °C 1006 hPa SSW 8 km/h 14.5 km/h 63% 0 mm 0 W/m2
17:12 6.6 °C 0.7 °C 1006 hPa SW 9.7 km/h 11.3 km/h 66% 0 mm 0 W/m2
17:18 6.1 °C 0.8 °C 1006.3 hPa SW 9.7 km/h 11.3 km/h 69% 0 mm 0 W/m2
17:24 5.7 °C 0.9 °C 1006.3 hPa SW 9.7 km/h 11.3 km/h 71% 0 mm 0 W/m2
17:30 5.6 °C 0.9 °C 1006.3 hPa SSW 8 km/h 8 km/h 72% 0 mm 0 W/m2
17:36 5.6 °C 0.9 °C 1006.7 hPa SW 6.4 km/h 8 km/h 72% 0 mm 0 W/m2
17:42 5.6 °C 0.9 °C 1006.7 hPa SSW 9.7 km/h 11.3 km/h 72% 0 mm 0 W/m2
17:48 5.5 °C 0.8 °C 1006.7 hPa SSW 6.4 km/h 11.3 km/h 72% 0 mm 0 W/m2
17:54 5.5 °C 0.8 °C 1007 hPa WSW 3.2 km/h 6.4 km/h 72% 0 mm 0 W/m2
18:00 5.4 °C 0.7 °C 1006.7 hPa WSW 3.2 km/h 3.2 km/h 72% 0 mm 0 W/m2
18:06 5.3 °C 0.7 °C 1007 hPa WSW 1.6 km/h 3.2 km/h 72% 0 mm 0 W/m2
18:12 5.2 °C 0.3 °C 1007.3 hPa Calm   4.8 km/h 71% 0 mm 0 W/m2
18:18 4.9 °C -0.1 °C 1007.3 hPa NW 3.2 km/h 4.8 km/h 70% 0 mm 0 W/m2
18:24 4.7 °C -0.5 °C 1007.7 hPa WNW 4.8 km/h 6.4 km/h 69% 0 mm 0 W/m2
18:30 4.6 °C -0.8 °C 1007.7 hPa NW 3.2 km/h 4.8 km/h 68% 0 mm 0 W/m2
18:36 4.6 °C -1.9 °C 1007.7 hPa WNW 4.8 km/h 11.3 km/h 63% 0 mm 0 W/m2
18:42 4.4 °C -2.7 °C 1008 hPa WSW 6.4 km/h 6.4 km/h 60% 0 mm 0 W/m2
18:48 4.3 °C -2.8 °C 1008 hPa WNW 6.4 km/h 6.4 km/h 60% 0 mm 0 W/m2
18:54 4.3 °C -2.8 °C 1008 hPa WSW 4.8 km/h 11.3 km/h 60% 0 mm 0 W/m2
19:00 4.2 °C -3.2 °C 1008 hPa WSW 8 km/h 9.7 km/h 59% 0 mm 0 W/m2
19:06 4.1 °C -3.2 °C 1008.4 hPa West 8 km/h 9.7 km/h 59% 0 mm 0 W/m2
19:12 4 °C -3.3 °C 1008.4 hPa WSW 6.4 km/h 8 km/h 59% 0 mm 0 W/m2
19:18 3.9 °C -3.3 °C 1008.4 hPa West 6.4 km/h 8 km/h 59% 0 mm 0 W/m2
19:24 3.9 °C -3.2 °C 1008.4 hPa WNW 6.4 km/h 8 km/h 60% 0 mm 0 W/m2
19:30 3.8 °C -3.1 °C 1008.7 hPa NW 6.4 km/h 8 km/h 61% 0 mm 0 W/m2
19:36 3.1 °C -2.3 °C 1009 hPa West 9.7 km/h 12.9 km/h 68% 0 mm 0 W/m2
19:42 2.1 °C -2.4 °C 1009.4 hPa NW 11.3 km/h 11.3 km/h 72% 0 mm 0 W/m2
19:48 1.2 °C -3.2 °C 1009.7 hPa NW 11.3 km/h 17.7 km/h 73% 0 mm 0 W/m2
19:54 0.7 °C -3.4 °C 1009.4 hPa NW 11.3 km/h 11.3 km/h 74% 0 mm 0 W/m2
20:00 0.3 °C -3.8 °C 1009.7 hPa WNW 9.7 km/h 9.7 km/h 74% 0 mm 0 W/m2
20:06 -0.1 °C -3.8 °C 1010 hPa NNW 8 km/h 9.7 km/h 76% 0 mm 0 W/m2
20:12 -0.4 °C -3.6 °C 1009.7 hPa NW 6.4 km/h 11.3 km/h 79% 0 mm 0 W/m2
20:18 -0.7 °C -4.1 °C 1009.7 hPa NW 9.7 km/h 11.3 km/h 78% 0 mm 0 W/m2
20:24 -0.6 °C -4.2 °C 1010 hPa WNW 9.7 km/h 11.3 km/h 77% 0 mm 0 W/m2
20:30 -0.6 °C -4.2 °C 1010.4 hPa NW 9.7 km/h 9.7 km/h 77% 0 mm 0 W/m2
20:36 -0.7 °C -4.6 °C 1010.7 hPa WNW 9.7 km/h 11.3 km/h 75% 0 mm 0 W/m2
20:42 -0.9 °C -4.9 °C 1010.7 hPa West 9.7 km/h 14.5 km/h 74% 0 mm 0 W/m2
20:48 -1.1 °C -5.1 °C 1010.7 hPa NW 8 km/h 14.5 km/h 74% 0 mm 0 W/m2
20:54 -1.2 °C -5.3 °C 1011.1 hPa NW 8 km/h 24.1 km/h 74% 0 mm 0 W/m2
21:00 -1.4 °C -5.7 °C 1011.1 hPa NW 8 km/h 9.7 km/h 73% 0 mm 0 W/m2
21:06 -1.6 °C -6 °C 1011.7 hPa WNW 8 km/h 9.7 km/h 72% 0 mm 0 W/m2
21:12 -1.8 °C -6.2 °C 1011.7 hPa NNW 6.4 km/h 9.7 km/h 72% 0 mm 0 W/m2
21:18 -2.1 °C -6.5 °C 1012.1 hPa WNW 8 km/h 19.3 km/h 72% 0 mm 0 W/m2
21:24 -2.2 °C -6.6 °C 1012.1 hPa NW 9.7 km/h 9.7 km/h 72% 0 mm 0 W/m2
21:30 -2.3 °C -6.9 °C 1012.1 hPa WNW 8 km/h 8 km/h 71% 0 mm 0 W/m2
21:36 -2.5 °C -6.8 °C 1012.4 hPa NNW 8 km/h 9.7 km/h 72% 0 mm 0 W/m2
21:42 -2.7 °C -6.8 °C 1012.1 hPa NW 8 km/h 14.5 km/h 73% 0 mm 0 W/m2
21:48 -2.9 °C -6.8 °C 1012.1 hPa WNW 9.7 km/h 14.5 km/h 75% 0 mm 0 W/m2
21:54 -2.9 °C -7.1 °C 1012.4 hPa West 8 km/h 24.1 km/h 73% 0 mm 0 W/m2
22:00 -2.9 °C -7.3 °C 1012.4 hPa WNW 11.3 km/h 11.3 km/h 72% 0 mm 0 W/m2
22:06 -3.4 °C -7.2 °C 1012.8 hPa WNW 9.7 km/h 12.9 km/h 75% 0 mm 0 W/m2
22:12 -3.8 °C -7.1 °C 1012.8 hPa WNW 9.7 km/h 16.1 km/h 78% 0 mm 0 W/m2
22:18 -3.9 °C -6.8 °C 1012.8 hPa WNW 8 km/h 16.1 km/h 80% 0 mm 0 W/m2
22:24 -3.9 °C -6.7 °C 1012.8 hPa WNW 6.4 km/h 9.7 km/h 81% 0 mm 0 W/m2
22:30 -4 °C -6.6 °C 1012.8 hPa NNW 6.4 km/h 16.1 km/h 82% 0 mm 0 W/m2
22:36 -4.2 °C -7 °C 1013.1 hPa NW 9.7 km/h 16.1 km/h 81% 0 mm 0 W/m2
22:42 -4.3 °C -7.3 °C 1013.4 hPa NW 8 km/h 9.7 km/h 80% 0 mm 0 W/m2
22:48 -4.6 °C -7.6 °C 1013.4 hPa NW 9.7 km/h 12.9 km/h 80% 0 mm 0 W/m2
22:54 -4.7 °C -7.6 °C 1013.1 hPa NW 9.7 km/h 14.5 km/h 80% 0 mm 0 W/m2
23:00 -4.7 °C -7.7 °C 1013.4 hPa NW 6.4 km/h 6.4 km/h 80% 0 mm 0 W/m2
23:06 -4.8 °C -7.6 °C 1013.4 hPa NW 6.4 km/h 11.3 km/h 81% 0 mm 0 W/m2
23:12 -4.9 °C -7.8 °C 1013.4 hPa NW 8 km/h 8 km/h 80% 0 mm 0 W/m2
23:18 -4.9 °C -7.8 °C 1013.8 hPa NNW 6.4 km/h 8 km/h 80% 0 mm 0 W/m2
23:24 -4.9 °C -7.8 °C 1013.4 hPa NW 4.8 km/h 6.4 km/h 80% 0 mm 0 W/m2
23:30 -4.8 °C -7.9 °C 1013.8 hPa NNW 4.8 km/h 4.8 km/h 79% 0 mm 0 W/m2
23:36 -4.9 °C -8.1 °C 1013.4 hPa NNW 6.4 km/h 14.5 km/h 78% 0 mm 0 W/m2
23:42 -4.9 °C -8.3 °C 1013.4 hPa NNW 8 km/h 8 km/h 77% 0 mm 0 W/m2
23:48 -4.9 °C -8.7 °C 1013.4 hPa NNW 6.4 km/h 9.7 km/h 75% 0 mm 0 W/m2
23:54 -4.7 °C -8.7 °C 1013.8 hPa NNW 8 km/h 14.5 km/h 74% 0 mm 0 W/m2
Country Meadow, Clay, NY, USA
Compliments of Weather Underground - 2 mb